Tracking 35331 objects as of 16-Sep-2026
HD Live streaming from Space Station
objects crossing your sky now

COSMOS 1484 DEB


COSMOS 1484 DEB is no longer on orbit


NORAD ID: 22894
Int'l Code: 1983-075L
Launch date: July 24, 1983
Source: Commonwealth of Independent States (former USSR) (CIS)
Launch site: TYURATAM MISSILE AND SPACE COMPLEX (TTMTR)
Decay date: 1994-02-26

Note: This is SATELLITE DEBRIS
Your satellite tracking list
Your tracking list is empty




NASA's NSSDC Master Catalog

Two Line Element Set (TLE):
1 22894U 83075  L 94056.06201967 -.14918561 +2593700 +83387-2 0  9995
2 22894 098.0868 103.2338 0006645 056.9040 303.2879 16.11116337019946
Source of the keplerian elements: AFSPC